GFSSE_prec_cloud_021.txt.gz
Cloud_Cover
100 100 94 100 100 100 98 10 10 5 5 5 0 0 0 2 0 1 2 5 0 0 0 0 0 0 0 0 0 0 0 0 0 0 0 0 0 0 0 0 0 2 50
100 100 100 100 100 100 32 5 7 5 5 5 0 1 5 4 1 1 5 5 0 0 5 0 0 0 0 0 0 1 0 0 0 0 0 0 0 0 0 0 0 0 12
100 100 100 100 100 45 90 48 5 5 5 5 15 5 5 3 5 5 5 0 1 13 0 0 0 0 0 0 0 4 5 1 0 0 0 0 0 0 3 0 0 0 0
100 100 100 100 100 98 92 5 5 16 13 83 6 33 25 4 0 5 1 5 48 0 0 0 0 18 5 5 88 1 2 5 0 0 0 0 0 0 0 0 0 0 0
100 100 100 100 100 85 76 6 33 26 41 59 30 21 1 0 0 1 66 1 5 0 0 0 3 5 5 5 5 0 3 0 0 0 0 0 0 0 0 0 0 0 0
100 100 100 100 100 77 89 100 100 100 43 92 62 5 6 18 5 98 33 5 5 0 5 5 5 5 82 99 5 0 3 0 0 0 0 0 0 0 0 0 0 0 0
100 100 100 96 97 100 100 100 87 98 66 26 53 33 76 12 63 11 5 5 43 5 5 46 26 100 82 10 5 4 0 0 0 0 0 0 0 0 0 0 0 0 0
100 100 100 100 100 100 100 100 98 78 59 78 100 69 8 5 37 76 20 5 5 5 30 5 78 78 32 15 5 2 0 0 0 0 0 0 0 0 0 0 0 0 0
100 100 100 100 100 100 100 99 78 100 98 80 95 100 59 94 100 94 95 41 5 100 12 97 100 9 10 4 0 0 0 0 0 0 0 0 0 0 0 0 0 0 0
100 100 100 100 100 100 100 100 100 100 99 97 100 100 100 100 100 100 100 99 40 21 100 79 73 5 68 5 0 0 0 0 0 0 0 0 0 0 0 0 0 0 0
100 100 100 100 100 100 100 100 100 100 100 67 100 100 100 100 100 100 100 100 100 100 10 6 5 0 0 0 0 2 5 2 0 0 0 0 0 0 0 0 0 0 0
100 100 100 100 100 100 100 100 100 100 98 100 100 100 100 100 100 100 98 100 92 53 5 5 5 3 3 6 6 1 3 0 0 0 0 0 0 0 0 0 0 0 0
100 100 100 100 100 100 100 99 100 100 100 100 100 100 100 100 100 92 81 99 84 56 7 2 1 6 48 5 0 0 0 0 0 0 0 0 0 0 0 0 0 0 0
100 100 100 100 100 100 100 100 100 100 100 100 100 100 100 97 98 49 95 56 16 5 4 0 5 0 0 0 0 0 0 0 0 0 0 0 0 0 0 0 0 0 0
100 99 100 98 100 100 100 100 100 100 100 100 100 98 94 92 5 5 5 4 24 31 5 5 5 2 1 0 0 0 0 0 0 0 0 0 0 0 0 0 0 0 0
99 99 72 97 94 100 100 100 100 100 100 100 100 100 100 100 67 64 28 8 76 18 34 6 13 5 5 5 0 0 0 0 0 0 0 0 0 3 0 0 0 0 0
100 68 71 81 100 100 100 100 100 100 100 100 100 100 100 100 100 66 65 100 100 96 19 5 38 5 5 5 1 0 0 0 0 0 0 0 0 0 0 0 0 0 0
84 90 97 94 100 100 100 100 100 100 100 100 100 100 100 100 100 100 96 100 100 99 5 5 31 5 5 5 5 5 5 0 0 0 4 5 5 0 0 0 0 0 0
100 100 82 100 100 100 100 100 100 100 100 100 100 100 100 100 100 100 100 100 84 2 3 2 2 5 5 5 5 4 2 0 0 0 0 1 0 1 1 5 5 5 0
70 72 42 100 100 100 100 100 100 100 100 100 100 100 100 100 93 28 11 5 0 0 0 0 2 2 0 5 5 5 5 0 0 0 0 0 0 0 1 5 5 9 5
100 100 100 100 88 100 100 100 100 100 100 100 100 100 95 80 5 5 5 5 5 0 0 1 5 5 2 0 0 0 0 0 3 5 5 17 14 16 5 5 0 0 5
58 44 45 90 100 100 100 87 5 5 13 26 13 38 1 0 2 0 0 4 5 19 70 21 4 0 0 0 0 0 0 0 4 1 0 0 0 1 4 5 3 4 0
9 7 5 17 10 5 90 66 5 5 4 5 4 0 0 0 2 1 5 5 5 4 1 0 4 5 5 2 0 1 0 0 5 0 2 4 5 5 5 5 5 5 5
90 61 94 75 38 62 65 21 76 40 40 0 0 0 0 0 0 5 4 5 5 0 2 3 0 0 0 0 1 3 5 5 5 5 5 17 6 5 5 5 5 5 5
5 32 89 78 23 62 77 47 3 0 0 0 0 0 0 0 0 0 2 0 0 0 0 5 3 5 5 11 5 5 5 5 16 100 50 39 52 42 22 5 5 5 5
11 3 8 5 5 5 5 5 22 5 2 1 4 2 3 0 0 0 0 0 0 1 6 83 84 56 40 16 5 12 68 11 5 65 92 98 40 5 5 5 10 5 6

GFSSE_prec_cloud_024.txt.gz
Cloud_Cover
98 100 100 100 100 100 42 100 100 100 87 87 5 17 5 1 0 3 1 2 2 0 0 0 0 0 0 0 0 0 0 0 0 4 0 0 0 1 0 0 0 55 0
89 100 100 100 100 100 93 100 72 36 100 42 5 5 5 0 5 12 8 11 5 5 0 0 0 0 0 0 0 0 0 0 0 5 0 0 0 2 0 0 0 0 0
100 100 100 100 100 100 100 100 100 100 59 84 75 10 5 6 14 97 7 2 5 1 5 0 0 0 0 0 0 0 0 4 0 5 0 0 52 0 0 0 0 0 0
100 100 99 99 100 96 57 99 38 100 61 32 5 5 5 18 88 27 5 5 4 5 0 5 2 0 0 0 1 1 4 4 0 5 1 29 97 0 0 0 0 0 0
100 100 100 87 100 100 100 99 94 68 36 5 5 5 54 13 3 3 4 7 80 3 1 0 3 4 2 4 2 5 5 5 0 0 0 2 17 6 0 0 0 0 0
100 100 100 100 99 94 65 99 85 80 57 51 5 5 5 5 5 5 69 9 26 16 5 36 5 5 5 5 5 5 94 2 5 0 0 0 3 0 0 0 0 0 0
100 100 100 100 100 99 100 35 70 76 99 100 100 100 58 48 100 26 9 30 5 53 100 100 100 51 25 59 57 94 37 5 3 0 0 0 0 0 0 0 0 0 0
100 100 100 100 100 100 100 100 100 100 100 100 91 71 100 100 100 6 51 10 30 96 83 100 97 89 56 90 94 63 2 1 0 0 0 0 0 0 0 0 0 0 0
100 100 100 100 100 100 100 100 100 100 100 100 100 100 81 100 91 97 29 100 100 48 100 100 100 100 27 94 24 5 4 0 0 0 0 0 0 0 0 0 0 0 0
100 100 100 100 100 100 100 100 100 100 100 100 100 100 100 100 98 25 72 99 72 100 86 99 100 100 100 100 92 5 0 0 0 0 0 0 0 0 0 0 0 0 0
100 100 100 100 100 99 100 100 100 100 100 100 100 100 100 100 100 100 94 44 99 100 97 89 70 98 11 5 5 0 0 0 3 1 0 0 0 0 0 0 0 0 0
100 100 100 100 100 100 100 100 100 100 100 100 100 100 100 96 100 100 58 38 88 29 6 91 25 5 5 0 0 0 0 0 0 0 0 0 0 0 0 0 0 0 0
100 100 100 100 100 100 100 100 100 100 100 100 100 100 100 80 100 30 6 5 12 5 28 8 1 2 0 0 0 0 0 0 0 0 0 0 0 0 0 0 0 0 0
100 100 100 100 100 100 100 100 100 100 100 100 100 100 78 79 82 12 8 5 5 5 5 5 3 4 0 0 0 0 0 0 0 0 0 0 0 0 0 0 0 0 0
100 100 100 100 100 100 100 100 98 100 100 100 100 96 100 100 100 100 99 100 98 91 9 5 5 22 3 5 2 2 0 0 0 0 0 0 0 0 0 0 0 0 0
100 100 100 100 100 100 95 93 65 98 100 100 100 100 100 100 100 100 90 94 94 100 41 35 87 100 100 61 27 0 0 0 0 0 0 0 0 0 0 0 0 0 0
81 98 94 94 79 29 75 100 100 100 100 100 100 100 100 100 100 100 100 88 96 100 100 94 100 100 99 6 0 0 2 1 0 0 0 0 0 0 0 0 0 0 0
100 99 99 83 100 100 100 100 100 100 100 100 100 100 100 100 100 100 100 100 100 100 100 100 100 96 5 0 0 0 5 5 5 1 4 0 0 0 0 0 0 0 0
100 88 66 85 89 100 100 100 100 100 100 100 100 100 100 100 100 100 100 100 100 100 100 100 34 3 0 0 1 0 0 0 1 3 0 5 0 2 0 0 4 1 0
90 99 92 95 100 99 100 100 100 100 100 100 100 100 100 100 99 100 100 100 100 100 76 4 0 2 2 5 3 0 0 0 0 2 5 5 2 5 5 5 4 4 5
100 100 100 100 100 100 99 100 100 100 100 100 100 100 100 100 100 100 100 29 0 0 0 4 2 0 0 4 3 0 0 0 5 7 80 65 42 35 77 74 51 13 5
100 100 67 62 36 7 22 95 99 100 66 77 66 15 17 18 27 5 5 4 0 0 0 1 5 4 2 5 5 5 7 17 4 99 24 5 5 10 5 5 5 3 5
100 96 87 45 16 5 82 100 23 0 0 0 2 0 0 1 2 0 0 0 0 0 0 0 1 4 5 5 5 4 3 2 4 3 28 62 58 5 5 5 64 5 32
100 100 43 5 4 10 5 2 0 3 4 5 6 41 5 5 5 5 0 0 0 0 0 5 5 5 5 4 5 5 5 12 80 57 91 100 99 34 60 66 79 56 77
49 17 5 4 0 0 5 5 5 7 96 82 35 8 63 47 5 5 0 0 5 5 5 5 5 67 6 5 5 5 70 96 100 100 100 98 82 100 100 85 11 5 7
5 5 5 0 0 4 5 5 26 77 68 94 100 84 8 8 4 5 4 4 2 2 5 5 48 80 63 27 43 99 100 100 100 100 100 100 97 6 84 94 93 74 57

GFSSE_prec_cloud_030.txt.gz
Cloud_Cover
92 100 41 8 34 7 5 20 32 5 5 5 36 76 93 7 4 2 2 5 29 60 47 35 10 0 0 0 0 0 0 0 0 0 0 8 1 0 0 0 0 0 0
100 91 35 96 97 77 81 54 90 56 69 25 5 5 5 5 1 0 2 5 4 5 5 2 0 0 0 0 0 0 0 0 0 0 0 19 93 0 0 0 0 0 0
99 68 64 100 100 100 100 100 88 92 100 89 20 76 5 5 5 0 0 0 0 0 0 0 1 0 5 48 50 3 10 1 5 6 42 25 0 0 0 0 0 0 0
53 78 93 100 100 100 100 100 100 100 96 89 90 25 5 5 6 5 13 4 4 2 5 21 81 72 5 55 2 6 26 20 5 45 56 72 0 5 5 0 0 0 0
16 33 99 92 100 100 100 100 100 100 100 100 100 98 70 14 42 91 35 70 79 89 100 100 66 32 5 5 60 100 84 5 2 47 0 5 18 5 1 0 0 0 0
73 100 100 100 100 100 100 100 100 100 100 100 100 100 100 100 100 100 81 100 100 100 100 100 94 99 5 100 100 100 70 0 4 3 5 5 5 6 1 0 0 0 0
98 100 100 100 100 100 100 100 100 100 100 100 100 100 100 100 100 100 100 100 100 100 100 100 61 100 100 100 100 96 5 14 6 5 5 5 3 4 0 0 0 0 0
100 100 100 100 100 100 100 100 100 100 100 100 100 100 100 100 100 100 100 100 100 100 100 100 100 100 100 87 93 20 85 5 5 35 48 8 1 0 0 0 0 0 0
100 100 100 100 100 100 100 100 100 100 100 100 100 100 100 100 100 100 100 100 100 100 100 100 100 100 100 93 17 5 5 1 2 3 6 4 0 0 0 0 0 0 0
100 100 100 100 100 100 100 100 100 100 100 100 100 100 100 100 100 100 100 100 100 98 68 100 100 94 6 6 26 5 0 1 0 0 0 0 0 0 0 0 0 0 0
100 100 100 100 100 100 100 100 100 100 100 100 100 100 100 100 100 100 100 100 100 99 100 76 54 5 78 5 3 0 4 4 0 0 0 0 0 0 0 0 0 0 0
100 100 100 100 100 100 100 100 100 100 100 100 100 100 100 100 100 100 92 100 100 100 100 74 18 62 5 4 3 3 5 3 0 0 0 1 0 0 4 0 0 0 0
100 100 100 100 100 100 100 100 100 100 100 100 100 100 100 100 100 96 97 99 98 93 100 95 100 70 5 4 4 0 4 0 2 0 88 96 92 2 5 0 0 0 0
100 100 100 100 100 100 100 100 100 100 100 100 100 100 100 100 100 100 97 79 100 92 65 43 49 89 54 99 71 97 100 100 41 100 94 72 43 6 0 0 0 0 0
100 100 100 100 100 100 100 100 100 100 100 100 100 100 100 100 100 80 84 64 100 58 89 100 79 43 82 77 47 25 100 100 100 39 17 77 5 1 3 2 2 0 0
100 100 100 100 100 100 100 100 100 100 100 100 100 100 100 99 94 99 72 100 99 99 86 100 98 92 100 100 100 100 100 100 100 85 44 2 5 5 5 4 5 5 0
100 100 100 100 100 100 100 100 100 100 100 100 100 100 100 100 100 100 100 63 100 100 100 92 100 82 100 100 10 14 8 59 84 43 51 15 0 0 7 92 5 4 5
100 100 100 100 100 100 100 100 100 100 100 100 100 100 100 99 99 100 100 100 100 100 100 89 42 5 40 37 95 27 5 5 2 0 0 0 0 0 5 8 13 6 3
100 100 100 100 100 100 100 100 100 98 100 100 100 97 96 100 100 100 86 90 100 100 95 76 5 5 5 0 0 1 0 0 0 0 0 1 35 95 100 100 100 100 97
100 100 100 100 100 100 100 100 94 89 100 99 99 71 37 18 91 87 60 37 96 100 88 94 8 5 3 0 0 0 0 0 2 0 0 3 1 68 100 100 100 96 82
77 100 100 45 14 66 79 72 100 100 100 45 17 9 4 1 0 0 0 1 4 41 5 0 0 0 0 0 0 0 0 0 0 0 0 0 1 49 100 100 98 31 5
93 64 59 100 94 57 42 8 5 25 18 7 0 3 4 5 5 5 5 34 5 1 5 4 0 0 0 0 0 0 4 3 0 0 0 0 4 6 34 59 41 88 65
49 20 56 100 13 5 5 5 90 6 0 0 0 0 5 26 64 7 26 27 5 5 5 1 0 0 0 0 0 4 3 5 4 0 0 0 0 0 3 5 73 51 80
16 5 53 22 5 5 70 87 36 0 0 2 26 0 5 29 72 78 15 4 5 5 1 0 0 3 1 2 4 5 1 10 6 5 5 3 1 0 0 0 8 80 17
22 11 64 31 24 94 1 57 0 93 99 14 5 24 83 89 91 5 0 5 5 5 0 0 5 5 5 5 5 5 5 5 5 5 2 0 0 0 0 3 5 7 5
65 0 26 70 92 2 0 8 0 0 5 5 13 100 100 92 6 3 4 5 5 0 1 0 2 16 16 5 4 3 5 12 30 48 3 3 5 0 0 0 0 5 1

GFSSE_prec_cloud_033.txt.gz
Cloud_Cover
99 100 100 100 100 96 100 97 87 82 24 5 5 65 11 74 74 66 44 5 5 0 0 0 0 0 0 0 0 0 0 0 0 2 0 16 52 5 0 0 0 0 0
69 96 100 100 100 100 100 100 100 100 99 74 8 100 37 88 80 93 27 5 5 1 4 5 0 0 0 0 0 0 29 68 0 4 1 5 79 26 0 0 0 0 0
68 100 100 100 100 100 100 100 100 100 91 100 62 100 87 100 100 100 100 57 6 12 5 5 0 5 3 5 6 96 97 5 5 49 100 76 6 2 0 0 0 0 0
59 97 100 100 100 100 100 100 100 100 100 100 97 100 100 100 100 100 98 88 98 90 14 18 60 93 51 100 100 99 100 86 89 80 100 25 4 2 0 0 0 0 0
54 90 100 100 99 100 100 100 100 100 52 77 100 100 100 100 100 100 100 100 100 99 91 89 74 90 100 100 84 98 84 96 100 100 100 88 37 1 5 0 0 0 0
100 100 100 98 100 100 100 100 100 100 75 99 100 100 100 100 100 100 100 100 100 100 100 100 100 98 60 100 100 10 100 37 100 41 100 17 2 4 1 0 1 0 0
100 97 100 100 100 99 100 100 100 100 100 100 97 100 100 100 100 100 100 100 100 100 100 100 100 100 100 100 98 100 34 93 77 28 6 5 22 1 0 0 0 0 0
100 100 100 100 100 100 100 100 100 100 100 100 100 100 100 100 100 100 100 100 100 100 100 100 100 98 98 100 76 100 100 18 100 78 18 10 4 0 0 0 0 0 0
100 100 100 100 100 100 100 100 100 100 100 100 100 100 100 100 100 100 100 100 100 100 100 100 100 100 100 100 100 37 31 100 42 12 16 3 0 0 0 0 0 0 0
100 100 100 100 100 100 100 100 100 100 100 100 100 100 100 100 100 100 100 100 100 100 100 100 100 98 100 98 58 93 2 5 26 62 5 0 0 0 0 0 0 3 10
100 100 100 100 100 100 100 100 100 100 100 100 100 100 100 100 100 100 100 100 100 100 100 92 59 100 100 100 100 7 8 94 92 5 0 0 0 0 0 1 5 5 4
100 100 100 100 100 100 100 100 100 100 100 100 100 100 100 100 100 100 100 100 100 100 99 100 100 81 91 64 78 53 70 4 2 3 0 0 0 0 2 89 95 5 36
100 100 100 100 100 100 100 100 100 100 100 100 100 100 100 100 100 100 100 100 100 100 100 99 100 59 79 100 5 13 3 2 0 0 5 4 0 21 100 94 100 90 98
100 100 100 100 100 100 100 100 100 100 100 100 100 100 100 100 100 100 100 100 100 100 100 100 100 65 100 100 100 100 71 82 100 99 55 100 100 100 92 5 16 2 0
100 100 100 100 100 100 100 100 100 100 100 100 100 100 100 100 100 100 100 100 100 100 100 100 100 100 91 98 94 20 100 100 19 44 57 15 5 1 1 2 5 4 4
100 100 100 100 100 100 100 100 100 100 100 100 100 100 100 100 100 100 100 100 100 100 100 100 100 100 58 58 96 60 80 53 34 2 4 18 81 100 97 18 1 5 4
100 100 100 100 100 100 100 100 100 100 100 100 100 100 100 100 100 100 100 100 100 100 100 100 100 93 99 79 79 91 100 7 5 1 0 0 0 0 0 0 0 4 5
100 100 100 100 100 100 100 100 100 100 100 100 100 100 100 100 100 100 100 100 100 21 23 21 5 3 2 0 0 0 0 0 0 0 0 0 1 2 4 5 7 12 85
84 100 100 100 100 100 100 100 100 100 100 100 100 100 100 100 98 100 100 69 11 43 28 5 0 0 0 0 0 0 0 0 0 0 0 0 0 3 21 54 84 99 93
41 99 100 100 100 100 100 100 100 100 100 100 100 93 100 100 100 100 57 40 20 5 4 0 0 0 0 0 0 0 0 0 0 0 0 0 0 3 1 8 21 52 83
96 100 100 100 100 100 100 100 100 100 100 100 100 100 85 100 87 74 36 32 5 5 5 0 0 0 0 0 0 0 0 0 0 0 0 0 0 0 0 5 16 30 41
100 100 69 63 98 100 100 100 99 100 34 7 14 12 18 59 61 15 5 23 5 12 0 0 0 0 0 0 0 0 0 0 0 0 0 0 0 0 2 5 81 98 93
95 100 81 63 14 10 19 93 100 17 21 21 12 5 5 5 5 5 5 5 5 3 0 0 0 0 0 0 0 0 1 0 0 0 0 0 0 0 0 0 0 1 5
63 83 54 19 10 5 15 29 9 5 4 0 0 2 5 24 12 5 5 5 5 5 55 2 0 0 0 0 0 4 0 2 5 3 4 0 0 0 0 0 0 0 0
5 5 7 5 5 10 7 4 2 0 0 0 0 0 5 5 3 5 5 38 100 90 93 5 5 5 5 5 5 23 52 4 2 1 5 0 0 0 0 0 0 0 0
5 5 5 4 0 3 2 6 48 12 0 0 0 5 24 62 89 46 24 100 100 97 25 0 0 2 5 5 41 99 24 5 6 28 18 5 5 1 4 0 0 0 0